Showing default

FLOCK 4G 15, 62678

Orbit data source: Space-Track

FLOCK 4G 15, 62678 is a payload satellite owned by Planet (US) in SSO that was launched on Tue, 14 Jan 2025 UTC via an FALCON 9 launch vehicle from the Air Force Western Test Range (AFWTR). Payload-class satellites include a variety of spacecraft equipped with specific instruments for various scientific and technological missions. These include communications satellites like Starlink; space stations such as the ISS; scientific satellites like the Hubble; Earth observation satellites from companies like Planet Labs, Umbra, and HawkEye 360; GPS; miniature CubeSats for education and research; and military/defense satellites.

Loading next visibility...
Identifier
62678, 2025-009BX
Orbit
SSO
Country
Flag of USUS
Related business
Manufacturer
Planet
Mission
Operational Commercial Imaging
Bus & Motor
CUBESAT 3U, Unknown motor
Mass
5.7 kg wet, 5.7 kg dry
Launch date (UTC)
2025-01-14 (1 year ago)
Launch vehicle
FALCON 9
Launch site
Air Force Western Test Range (AFWTR)
Object type
Payload
Rocket body
Debris
Shape & HBR
Box + 2 Pan, 1.0 m
Radar Cross Section
0.072 m², Medium (>0.1 m² and < 1m²)

Expand to show TLE details & history
Last TLE update: 5 hours ago

TLE from 5 hours ago
0 FLOCK 4G 15
1 62678U 25009BX  26125.16981439  .00013535  00000-0  48942-3 0  9999
2 62678  97.4016 207.2740 0006340 109.3704 250.8222 15.28542218129974
Epoch: 2026-05-05T04:04Z
TLE epoch observation values (Epoch: 2026-05-05T04:04:31.963Z)
Latitude
0.00002°
Longitude
-76.90769°
Altitude
484.703 km
Speed
7.622 km/s
True Right ascension
13h 49m 05s
True Declination
0° 00' 00"
Sunlit
Object was in full shadow at epoch
Visualization orbit readout
Latitude
Unknown
Longitude
Unknown
Altitude
Unknown
Speed
Unknown
Apparent Right ascension
Unknown
Apparent Declination
Unknown
Sunlit
N/A
Visualization observer readout
Local Sidereal Time
16:45:02
Azimuth
Unknown
Elevation
Unknown
Doppler factor
Unknown
Orbital elements
Apogee altitude
481.47 km
Perigee altitude
472.777 km
Semi-major axis
6,855.261 km
Eccentricity
0.00063
Inclination
97.4016°
RAAN
207.274°
Arg. of periapsis
109.3704°
True anomaly
250.7536°
Mean anomaly
250.8222°
Eccentric anomaly
250.7879°
Mean motion
3.82391 °/min
Orbital period
94.14 mins
BSTAR
0.00048942
Loading maneuver chart data...
Computing Atmospheric mass density...
Loading historical data...
Loading historical data...
Loading historical data...
Loading historical data...
Loading historical data...
Loading historical data...
Loading historical data...

Documentation

Showing up to 5 results
|